Weather History for MMTP - March, 2013

Change the Weather History Date:

Monday, March 11, 2013

  Actual Average Record
Temperature  
Mean Temperature 82 °F -  
Max Temperature 91 °F - - ()
Min Temperature 73 °F - - ()
Cooling Degree Days 17    
Growing Degree Days 32 (Base 50)    
Moisture  
Dew Point 66 °F    
Average Humidity 62    
Maximum Humidity 78    
Minimum Humidity 43    
Precipitation  
Precipitation 0.00 in - - ()
Sea Level Pressure  
Sea Level Pressure 29.86 in    
Wind  
Wind Speed 3 mph ()    
Max Wind Speed 14 mph    
Max Gust Speed -    
Visibility 10.0 miles    
Events      
T = Trace of Precipitation, MM = Missing Value Source: Averaged Metar Reports

Daily Weather History Graph

Daily Weather History Graph

Search for Another Location

Airport or City:

Trip Planner

Search our weather history database for the weather conditions in past years. The results will help you decide how hot, cold, wet, or windy it might be!

Date:

Astronomy

Mar. 11, 2013 Rise Set
Actual Time 6:19 AM CST 6:19 PM CST
Civil Twilight 5:58 AM CST 6:40 PM CST
Nautical Twilight 5:33 AM CST 7:05 PM CST
Astronomical Twilight 5:08 AM CST 7:30 PM CST
Moon 5:58 AM CST (3/11) 6:21 PM CST (3/11)
Length of Visible Light 12h 42m
Length of Day
11h 59m
Waning Crescent, 0% of the Moon is Illuminated
Mar 11
Waning Crescent
Mar 11
New
Mar 19
First Quarter
Mar 27
Full
Apr 2
Last Quarter

Hourly Weather History & Observations

Time (CST) Temp. Heat Index Dew Point Humidity Pressure Visibility Wind Dir Wind Speed Gust Speed Precip Events Conditions
12:40 AM 77.0 °F - 69.8 °F 78% 29.88 in 10.0 mi Calm Calm - N/A   Clear
1:40 AM 77.0 °F - 69.8 °F 78% 29.88 in 10.0 mi Calm Calm - N/A   Clear
2:40 AM 75.2 °F - 64.4 °F 69% 29.83 in 10.0 mi Calm Calm - N/A   Clear
3:40 AM 75.2 °F - 64.4 °F 69% 29.85 in 10.0 mi Calm Calm - N/A   Clear
4:40 AM 75.2 °F - 64.4 °F 69% 29.85 in 10.0 mi Calm Calm - N/A   Clear
5:40 AM 75.2 °F - 64.4 °F 69% 29.82 in 10.0 mi Calm Calm - N/A   Clear
6:40 AM 73.4 °F - 60.8 °F 65% 29.90 in 10.0 mi Calm Calm - N/A   Clear
7:40 AM 73.4 °F - 64.4 °F 73% 29.92 in 10.0 mi Calm Calm - N/A   Clear
8:45 AM 80.6 °F 82.3 °F 64.4 °F 58% 29.88 in 10.0 mi NNW 8.1 mph - N/A   Clear
9:40 AM 84.2 °F 85.0 °F 62.6 °F 48% 29.94 in - West 9.2 mph - N/A   Clear
10:40 AM - - - N/A% 29.94 in 10.0 mi West 11.5 mph - N/A   Clear
11:47 AM 87.8 °F 89.4 °F 64.4 °F 46% 29.88 in 10.0 mi West 13.8 mph - N/A   Clear
12:40 PM 91.4 °F 94.0 °F 66.2 °F 43% 29.88 in 10.0 mi West 13.8 mph - N/A   Clear
1:40 PM 89.6 °F 93.4 °F 68.0 °F 49% 29.86 in 10.0 mi West 11.5 mph - N/A   Partly Cloudy
2:40 PM 91.4 °F 95.4 °F 68.0 °F 46% 29.87 in 10.0 mi WSW 11.5 mph - N/A   Clear
3:40 PM 89.6 °F 92.2 °F 66.2 °F 46% 29.79 in 10.0 mi WSW 11.5 mph - N/A   Clear
4:40 PM 87.8 °F 90.4 °F 66.2 °F 49% 29.79 in 10.0 mi WSW 11.5 mph - N/A   Clear
5:40 PM 86.0 °F 88.2 °F 66.2 °F 51% 29.84 in 10.0 mi WSW 11.5 mph - N/A   Clear
6:40 PM 82.4 °F 84.6 °F 66.2 °F 58% 29.82 in 10.0 mi Calm Calm - N/A   Clear
7:40 PM 80.6 °F 82.7 °F 66.2 °F 61% 29.85 in 10.0 mi Calm Calm - N/A   Clear
8:40 PM 80.6 °F 82.7 °F 66.2 °F 61% 29.86 in 10.0 mi Calm Calm - N/A   Clear
9:40 PM 78.8 °F - 71.6 °F 78% 29.87 in 10.0 mi Calm Calm - N/A   Clear
10:40 PM 78.8 °F - 71.6 °F 78% 29.87 in 10.0 mi Calm Calm - N/A   Clear
11:40 PM 78.8 °F - 71.6 °F 78% 29.84 in 10.0 mi Calm Calm - N/A   Clear